[[{"header":{"parameterUnit":"m.s-1","parameterCategory":1,"la1":30.2991,"la2":30.254,"lo1":-89.0895,"lo2":-89.0444,"dy":0.0017,"dx":0.0017,"nx":28,"ny":28,"refTime":"2023-09-17T03:00:00:Z","depth":0,"parameterNumber":2,"parameterNumberName":"U-component_of_WINDS"},"data":[0,0,0,0,0,0,0,0,0,0,0,0,0,0,0,0,0,0,0,0,0,0,0,0,0,0,0,0,0,0,0,0,0,0,0,0,0,0,0,0,0,0,0,0,0,0,0,0,0,0,0,0,0,0,0,0,0,0,0.3421,0.3422,0,0.3516,0.3517,0.3518,0.3567,0.3567,0.3568,0.3568,0.3668,0.367,0.3673,0,0,0,0,0,0,0,0,0,0,0,0,0,0.3285,0.3287,0.3421,0.3422,0.3423,0.3516,0.3517,0.3518,0.3567,0.3567,0.3568,0.3568,0.3667,0.367,0.3673,0,0,0,0,0,0,0,0,0,0,0,0,0,0.3358,0.3288,0.3421,0.3459,0.3463,0.3515,0.3517,0.3519,0.3567,0.3567,0.3568,0.3568,0.3666,0.3669,0.3673,0.3696,0,0,0.3685,0.3687,0,0,0,0,0,0,0,0,0.3354,0.3363,0.3452,0.3456,0.3461,0.353,0.3506,0.3578,0.3567,0.3528,0.3568,0.3568,0.3622,0.3629,0.3647,0.37,0.3705,0.3686,0.3688,0.369,0.3691,0,0,0,0,0,0,0,0.3349,0.336,0.3459,0.3453,0.3459,0.3472,0.3483,0.352,0.3573,0.3531,0.3535,0.3546,0.3624,0.3643,0.365,0.3706,0.3686,0.3689,0.3691,0.3693,0.3783,0.3783,0,0,0,0,0,0,0.3338,0.3355,0.3456,0.3461,0.3407,0.3475,0.3486,0.3508,0.3573,0.3583,0.3545,0.3548,0.3636,0.3645,0.3653,0.3684,0.369,0.3693,0.3696,0.3782,0.3783,0.3783,0,0,0,0,0,0,0.3334,0.3346,0.3452,0.3409,0.3424,0.3477,0.35,0.351,0.3528,0.3584,0.3594,0.3554,0.3637,0.3648,0.3685,0.3688,0.3695,0.3699,0.3782,0.3783,0.3783,0.3744,0,0,0,0,0,0,0.333,0.3345,0.3353,0.3409,0.3426,0.348,0.3501,0.3511,0.3535,0.3538,0.3595,0.3604,0.3638,0.3678,0.3688,0.3693,0.3702,0.3782,0.3782,0.3783,0.3745,0.3743,0.3741,0,0,0,0,0,0.3325,0.3339,0.3353,0.3365,0.3437,0.348,0.349,0.3527,0.3535,0.3544,0.3579,0.3602,0.3686,0.3682,0.3693,0.37,0.3782,0.3782,0.3783,0.3747,0.3744,0.3741,0,0,0,0,0,0,0.3283,0.3347,0.3363,0.3395,0.3432,0.3488,0.3501,0.3523,0.3559,0.3561,0.3607,0.3619,0.3652,0.368,0.3674,0.3725,0.3737,0.3739,0.3705,0.3703,0.3701,0.3693,0.3705,0,0,0,0,0,0.3277,0.3306,0.3361,0.3384,0.3401,0.3448,0.3468,0.3494,0.3534,0.355,0.3588,0.3627,0.3662,0.3684,0.3719,0.375,0.3763,0.376,0.3758,0.3755,0.3757,0.3775,0.3775,0.3783,0.3783,0.3783,0,0,0.3265,0.3304,0.332,0.3376,0.3407,0.3437,0.3461,0.3491,0.3514,0.3555,0.3591,0.3621,0.3667,0.3701,0.3717,0.3725,0.3758,0.3756,0.3753,0.3756,0.3775,0.3774,0.3774,0.3783,0.3783,0.3783,0,0,0.326,0.3291,0.3314,0.3345,0.3392,0.3423,0.3428,0.3481,0.3502,0.3539,0.3571,0.3599,0.3658,0.369,0.3714,0.372,0.3743,0.373,0.3718,0.3736,0.3735,0.3735,0.3737,0.3737,0.3732,0.3732,0.3732,0,0.324,0.3284,0.3323,0.3352,0.3376,0.3413,0.3437,0.3465,0.3522,0.3538,0.3545,0.362,0.3654,0.3696,0.3697,0.3715,0.3723,0.3724,0.3732,0.3732,0.3732,0.3735,0.3735,0.373,0.373,0.373,0.373,0,0.3258,0.3288,0.3301,0.3353,0.3379,0.3405,0.3448,0.347,0.3493,0.3524,0.3561,0.3603,0.3648,0.366,0.3683,0.3705,0.3708,0.3723,0.3736,0.3729,0.3732,0.3733,0.3727,0.3728,0.3728,0.3729,0,0,0.3227,0.33,0.3304,0.3329,0.3383,0.3408,0.3436,0.3478,0.3496,0.3534,0.3558,0.3608,0.3622,0.3649,0.3677,0.3692,0.3694,0.3705,0.3707,0.3701,0.372,0.3708,0.3708,0.3709,0.3709,0.371,0.3716,0,0.3229,0.3279,0.3315,0.3352,0.3382,0.3418,0.3442,0.3479,0.3508,0.3538,0.3571,0.3605,0.3621,0.3637,0.3654,0.369,0.3698,0.369,0.3733,0.3734,0.372,0.371,0.3697,0.3701,0.3717,0.3718,0.3718,0,0.3237,0.3273,0.3312,0.3364,0.3377,0.3398,0.344,0.3468,0.351,0.3531,0.356,0.3589,0.362,0.363,0.3675,0.3669,0.3689,0.3709,0.371,0.3715,0.3725,0.3715,0.3703,0.3703,0.372,0.372,0.372,0,0.3211,0.3269,0.33,0.3319,0.338,0.3394,0.342,0.3463,0.3486,0.3523,0.3538,0.3579,0.3601,0.3632,0.3671,0.3674,0.3711,0.3725,0.373,0.3728,0.3736,0.3735,0.3727,0.3749,0.3749,0.3749,0.3749,0,0.3209,0.3231,0.3289,0.3308,0.3335,0.3376,0.3402,0.3431,0.3469,0.3495,0.3529,0.3553,0.3603,0.3633,0.3664,0.3696,0.3706,0.3723,0.3731,0.372,0.3718,0.3734,0.3734,0.3749,0.3749,0.3749,0.3749,0,0.3183,0.3223,0.3259,0.3313,0.3327,0.3345,0.3392,0.3412,0.3443,0.3476,0.3486,0.3535,0.3572,0.3614,0.3665,0.3686,0.3716,0.3728,0.3701,0.3706,0.3708,0.3707,0.371,0.3713,0.3733,0.3732,0.3732,0,0.3179,0.3197,0.3253,0.3273,0.3298,0.3329,0.3352,0.3394,0.3418,0.3467,0.3482,0.3522,0.3555,0.3614,0.3654,0.3694,0.3706,0.3705,0.3713,0.3701,0.3706,0.3704,0.3706,0.3702,0.3702,0.3702,0.3701,0,0.3167,0.3186,0.3218,0.3257,0.3284,0.3317,0.3352,0.3366,0.3415,0.344,0.3478,0.3504,0.3556,0.3595,0.364,0.3668,0.3693,0.3698,0.3702,0.369,0.3674,0.3683,0.3695,0.3698,0.3698,0.3699,0.3699,0.3699,0.3152,0.317,0.3212,0.3247,0.3278,0.3309,0.3331,0.3364,0.3396,0.3441,0.3465,0.3502,0.3545,0.3607,0.3634,0.3665,0.3673,0.3678,0.3679,0.3679,0.3676,0.3669,0.3673,0.3674,0.3674,0.3674,0.3674,0,0.3142,0.3171,0.3203,0.3249,0.3277,0.3298,0.3337,0.3359,0.3391,0.3428,0.3461,0.3505,0.3543,0.3587,0.3628,0.3644,0.3656,0.3653,0.3652,0.3658,0.3667,0.366,0.3642,0.3642,0.3642,0.3642,0.3642,0.3642,0.314,0.3171,0.3195,0.3241,0.3271,0.3307,0.3328,0.3357,0.3387,0.3434,0.3466,0.3494,0.3534,0.3578,0.3614,0.3626,0.3639,0.3633,0.3648,0.3655,0.3658,0.366,0.3654,0.3635,0.3635,0.3637,0.3637,0.3637]},{"header":{"parameterUnit":"m.s-1","parameterCategory":1,"la1":30.2991,"la2":30.254,"lo1":-89.0895,"lo2":-89.0444,"dy":0.0017,"dx":0.0017,"nx":28,"ny":28,"refTime":"2023-09-17T03:00:00:Z","depth":0,"parameterNumber":3,"parameterNumberName":"V-component_of_WINDS"},"data":[0,0,0,0,0,0,0,0,0,0,0,0,0,0,0,0,0,0,0,0,0,0,0,0,0,0,0,0,0,0,0,0,0,0,0,0,0,0,0,0,0,0,0,0,0,0,0,0,0,0,0,0,0,0,0,0,0,0,0.7125,0.7124,0,0.7039,0.7038,0.7037,0.6904,0.6902,0.69,0.6897,0.681,0.681,0.681,0,0,0,0,0,0,0,0,0,0,0,0,0,0.7176,0.7175,0.7125,0.7124,0.7123,0.7039,0.7038,0.7037,0.6905,0.6902,0.6899,0.6896,0.681,0.681,0.681,0,0,0,0,0,0,0,0,0,0,0,0,0,0.7128,0.7175,0.7126,0.7047,0.7039,0.7039,0.7038,0.7036,0.6905,0.6902,0.6898,0.6895,0.681,0.681,0.681,0.688,0,0,0.6809,0.6809,0,0,0,0,0,0,0,0,0.7131,0.7126,0.706,0.7053,0.7044,0.6979,0.7023,0.6984,0.6906,0.6956,0.6897,0.6893,0.6869,0.6864,0.6856,0.6876,0.6872,0.6809,0.6809,0.6809,0.6809,0,0,0,0,0,0,0,0.7134,0.7129,0.7091,0.7059,0.7049,0.7016,0.7005,0.7015,0.6934,0.6952,0.6942,0.6933,0.6864,0.6856,0.6853,0.6871,0.6809,0.6809,0.6809,0.6809,0.6939,0.6943,0,0,0,0,0,0,0.7149,0.7133,0.7094,0.7088,0.7079,0.7018,0.7006,0.7003,0.6933,0.6919,0.6936,0.6927,0.6858,0.6853,0.6849,0.6922,0.6809,0.6809,0.6809,0.6936,0.694,0.6944,0,0,0,0,0,0,0.7151,0.7147,0.7097,0.7108,0.7099,0.7021,0.7019,0.7003,0.6995,0.6922,0.6907,0.6943,0.6855,0.6849,0.6872,0.6918,0.6809,0.6809,0.6932,0.6937,0.6942,0.7073,0,0,0,0,0,0,0.7153,0.7148,0.7175,0.711,0.7099,0.7123,0.7022,0.7004,0.6995,0.6982,0.6924,0.6911,0.6852,0.6873,0.6872,0.6915,0.6809,0.6927,0.6934,0.694,0.7064,0.7082,0.7097,0,0,0,0,0,0.7155,0.7216,0.7177,0.7173,0.713,0.7125,0.7119,0.705,0.6999,0.7024,0.6976,0.6913,0.6914,0.6877,0.6874,0.6918,0.6924,0.6932,0.694,0.7056,0.7078,0.7097,0,0,0,0,0,0,0.7289,0.7206,0.7161,0.7203,0.7172,0.7103,0.7132,0.7076,0.7059,0.7048,0.6963,0.6951,0.6984,0.6954,0.6914,0.698,0.6909,0.6917,0.6998,0.7018,0.7035,0.704,0.6809,0,0,0,0,0,0.7324,0.7327,0.7254,0.7298,0.7285,0.7212,0.7207,0.7156,0.7121,0.7107,0.7061,0.703,0.7022,0.7019,0.7009,0.706,0.7043,0.7089,0.7106,0.712,0.7126,0.7147,0.7165,0.697,0.697,0.697,0,0,0.7395,0.735,0.7357,0.7324,0.7294,0.7298,0.7202,0.7211,0.7213,0.7109,0.7126,0.7092,0.705,0.7087,0.71,0.7063,0.7177,0.713,0.7142,0.714,0.7157,0.7176,0.7192,0.6976,0.6975,0.6974,0,0,0.7525,0.7494,0.7524,0.7496,0.7451,0.7401,0.7409,0.7348,0.7321,0.7337,0.7257,0.7259,0.7249,0.7221,0.7206,0.7325,0.7264,0.7324,0.741,0.7431,0.7446,0.7459,0.7497,0.7513,0.7332,0.7332,0.7332,0,0.7619,0.7622,0.7547,0.756,0.7547,0.7452,0.7481,0.7458,0.7413,0.7405,0.7363,0.7346,0.7312,0.7339,0.7367,0.736,0.7363,0.7329,0.745,0.7462,0.7473,0.7509,0.7524,0.7339,0.7339,0.7338,0.7337,0,0.7738,0.7741,0.7772,0.7728,0.7718,0.774,0.7667,0.7666,0.7616,0.7571,0.7587,0.7543,0.752,0.7523,0.7475,0.7542,0.7519,0.7466,0.7391,0.7501,0.7532,0.7545,0.735,0.7347,0.7345,0.7343,0,0,0.795,0.7863,0.7875,0.7853,0.7796,0.7797,0.7814,0.779,0.7789,0.7761,0.7771,0.7764,0.7712,0.7695,0.7643,0.7663,0.7754,0.7605,0.7603,0.7631,0.782,0.7858,0.7875,0.7715,0.7717,0.7719,0.7822,0,0.8066,0.8088,0.802,0.806,0.806,0.7969,0.7983,0.795,0.7908,0.7901,0.7855,0.785,0.7785,0.7773,0.7789,0.774,0.779,0.7732,0.772,0.7721,0.773,0.7892,0.7933,0.8033,0.7834,0.7836,0.7838,0,0.8204,0.8181,0.822,0.8158,0.8155,0.8169,0.814,0.8136,0.8095,0.8063,0.8044,0.7982,0.7993,0.7924,0.7935,0.7897,0.7889,0.7864,0.7866,0.7859,0.7784,0.7886,0.8063,0.8077,0.7858,0.7856,0.7855,0,0.8349,0.8329,0.8348,0.8333,0.8262,0.8273,0.8244,0.8199,0.8189,0.8164,0.8155,0.8133,0.812,0.8103,0.8037,0.7994,0.8055,0.7982,0.8026,0.8028,0.804,0.804,0.8215,0.8042,0.8042,0.8042,0.8041,0,0.8484,0.851,0.8412,0.8424,0.845,0.8372,0.84,0.8362,0.8323,0.8324,0.8246,0.825,0.8163,0.8157,0.8105,0.812,0.8116,0.8089,0.8074,0.8093,0.8096,0.8084,0.8074,0.8045,0.8045,0.8044,0.8043,0,0.8649,0.8585,0.8599,0.8531,0.8514,0.8536,0.8476,0.8484,0.8437,0.844,0.8436,0.8362,0.835,0.8283,0.8256,0.8221,0.8253,0.8226,0.8266,0.8256,0.8302,0.8297,0.8472,0.8489,0.831,0.8312,0.8314,0,0.8737,0.8755,0.8688,0.8683,0.8657,0.8651,0.8639,0.8563,0.8553,0.8506,0.8519,0.85,0.8481,0.8465,0.8408,0.8386,0.8356,0.8419,0.8352,0.837,0.8352,0.835,0.8349,0.8432,0.8435,0.8436,0.8438,0,0.8899,0.8866,0.8851,0.8825,0.8813,0.8789,0.876,0.8761,0.8676,0.8669,0.8655,0.864,0.8611,0.8592,0.856,0.8529,0.8468,0.846,0.8468,0.8486,0.8507,0.8492,0.8301,0.8455,0.8454,0.8452,0.8451,0.8451,0.9025,0.9035,0.8989,0.8974,0.8945,0.8919,0.8921,0.8874,0.8861,0.883,0.8787,0.8778,0.8734,0.8684,0.8658,0.8649,0.8614,0.8628,0.863,0.8634,0.8642,0.8512,0.8643,0.8643,0.8642,0.8641,0.8641,0,0.9179,0.9145,0.9132,0.9093,0.9082,0.9027,0.8992,0.8985,0.8978,0.8942,0.8924,0.8906,0.8887,0.8829,0.8803,0.8807,0.8778,0.8802,0.8799,0.8792,0.8676,0.8669,0.8826,0.8826,0.8826,0.8826,0.8825,0.8825,0.9258,0.927,0.9232,0.9228,0.9193,0.9183,0.9167,0.9142,0.9113,0.9096,0.9079,0.9042,0.8996,0.8966,0.8945,0.8928,0.8921,0.8953,0.8927,0.8819,0.8801,0.8784,0.8777,0.8953,0.8953,0.9043,0.9044,0.9044]}]]